Data No, UTC Date,UTC Time,Latitude,Longitude,Course(deg),Temp(degC),Sal(psu)
520,2021/1/22,8:39,42-36.96N,141-37.12E,208,3.857,32.805
521,2021/1/22,8:40,42-36.73N,141-36.94E,208,4.04,32.8307
522,2021/1/22,8:41,42-36.46N,141-36.82E,189,4.161,32.902
523,2021/1/22,8:42,42-36.20N,141-36.92E,151,4.523,32.9559
524,2021/1/22,8:43,42-36.00N,141-37.19E,134,4.852,32.9877
525,2021/1/22,8:44,42-35.79N,141-37.50E,130,4.818,33.0701
526,2021/1/22,8:45,42-35.58N,141-37.82E,132,5.006,33.1286
527,2021/1/22,8:46,42-35.37N,141-38.13E,133,5.053,33.1523
528,2021/1/22,8:47,42-35.14N,141-38.44E,134,5.071,33.1453
529,2021/1/22,8:48,42-34.92N,141-38.76E,134,5.119,33.1434
530,2021/1/22,8:49,42-34.68N,141-39.09E,133,5.139,33.1486
531,2021/1/22,8:50,42-34.45N,141-39.41E,133,5.133,33.1667
532,2021/1/22,8:51,42-34.21N,141-39.75E,133,5.097,33.1734
533,2021/1/22,8:52,42-33.98N,141-40.09E,133,5.156,33.157
534,2021/1/22,8:53,42-33.74N,141-40.43E,133,5.351,33.1583
535,2021/1/22,8:54,42-33.50N,141-40.78E,133,5.455,33.1731
536,2021/1/22,8:55,42-33.26N,141-41.13E,133,5.505,33.1895
537,2021/1/22,8:56,42-33.02N,141-41.48E,132,5.5,33.1972
538,2021/1/22,8:57,42-32.78N,141-41.84E,132,5.513,33.204
539,2021/1/22,8:58,42-32.53N,141-42.20E,132,5.538,33.1999
540,2021/1/22,8:59,42-32.28N,141-42.56E,132,5.585,33.1941
541,2021/1/22,9:00,42-32.03N,141-42.92E,133,5.631,33.1836
542,2021/1/22,9:01,42-31.78N,141-43.29E,133,5.698,33.1893
543,2021/1/22,9:02,42-31.52N,141-43.66E,133,5.698,33.188
544,2021/1/22,9:03,42-31.27N,141-44.02E,133,5.696,33.1998
545,2021/1/22,9:04,42-31.01N,141-44.39E,133,5.691,33.1975
546,2021/1/22,9:05,42-30.75N,141-44.76E,133,5.685,33.1952
547,2021/1/22,9:06,42-30.49N,141-45.13E,133,5.663,33.1945
548,2021/1/22,9:07,42-30.23N,141-45.50E,133,5.555,33.1999
549,2021/1/22,9:08,42-29.97N,141-45.87E,133,5.588,33.1852
550,2021/1/22,9:09,42-29.71N,141-46.24E,133,5.673,33.1776
551,2021/1/22,9:10,42-29.44N,141-46.61E,134,5.702,33.1706
552,2021/1/22,9:11,42-29.18N,141-46.97E,134,5.69,33.187
553,2021/1/22,9:12,42-28.91N,141-47.34E,134,5.606,33.1744
554,2021/1/22,9:13,42-28.61N,141-47.76E,134,5.506,33.176
555,2021/1/22,9:14,42-28.34N,141-48.14E,134,5.33,33.164
556,2021/1/22,9:15,42-28.08N,141-48.50E,134,5.378,33.1345
557,2021/1/22,9:16,42-27.82N,141-48.87E,134,5.471,33.13
558,2021/1/22,9:17,42-27.54N,141-49.24E,134,5.516,33.1269
559,2021/1/22,9:18,42-27.28N,141-49.60E,134,5.429,33.147
560,2021/1/22,9:19,42-27.05N,141-49.93E,133,5.452,33.1525
561,2021/1/22,9:20,42-26.79N,141-50.28E,134,5.403,33.1621
562,2021/1/22,9:21,42-26.52N,141-50.65E,134,5.279,33.1568
563,2021/1/22,9:22,42-26.25N,141-51.02E,134,4.924,33.1351
564,2021/1/22,9:23,42-25.99N,141-51.37E,134,4.498,33.121
565,2021/1/22,9:24,42-25.72N,141-51.74E,134,4.291,33.0665
566,2021/1/22,9:25,42-25.46N,141-52.10E,135,4.164,33.0074
567,2021/1/22,9:26,42-25.16N,141-52.50E,134,4.095,32.9661
568,2021/1/22,9:27,42-24.89N,141-52.87E,135,4.048,32.946
569,2021/1/22,9:28,42-24.61N,141-53.23E,135,4.049,32.9258
570,2021/1/22,9:29,42-24.35N,141-53.59E,135,4.077,32.9246
571,2021/1/22,9:30,42-24.07N,141-53.95E,135,4.105,32.9159
572,2021/1/22,9:31,42-23.81N,141-54.31E,135,4.146,32.9159
573,2021/1/22,9:32,42-23.54N,141-54.65E,135,4.184,32.9135
574,2021/1/22,9:33,42-23.26N,141-55.01E,135,4.223,32.9289
575,2021/1/22,9:34,42-23.00N,141-55.36E,135,4.276,32.9357
576,2021/1/22,9:35,42-22.76N,141-55.67E,135,4.315,32.9481
577,2021/1/22,9:36,42-22.49N,141-56.02E,135,4.324,32.9554
578,2021/1/22,9:37,42-22.21N,141-56.40E,135,4.333,32.9715
579,2021/1/22,9:38,42-21.96N,141-56.74E,134,4.118,32.9692
580,2021/1/22,9:39,42-21.68N,141-57.12E,135,4.052,32.959
581,2021/1/22,9:40,42-21.42N,141-57.46E,135,4.084,32.9336
582,2021/1/22,9:41,42-21.16N,141-57.81E,135,4.1,32.8897
583,2021/1/22,9:42,42-20.87N,141-58.19E,135,4.285,32.8877
584,2021/1/22,9:43,42-20.61N,141-58.54E,134,4.693,32.8871
585,2021/1/22,9:44,42-20.42N,141-58.97E,117,4.733,32.9051
586,2021/1/22,9:45,42-20.26N,141-59.42E,116,4.516,32.946
587,2021/1/22,9:46,42-20.10N,141-59.78E,119,4.452,32.9453
588,2021/1/22,9:47,42-19.92N,142-00.21E,118,4.438,32.9334
589,2021/1/22,9:48,42-19.75N,142-00.65E,116,4.364,32.9315
590,2021/1/22,9:49,42-19.59N,142-01.09E,116,4.109,32.9129
591,2021/1/22,9:50,42-19.42N,142-01.53E,116,3.887,32.8975
592,2021/1/22,9:51,42-19.25N,142-01.96E,120,3.814,32.8629
593,2021/1/22,9:52,42-19.06N,142-02.38E,120,3.745,32.8366
594,2021/1/22,9:53,42-18.87N,142-02.82E,120,3.669,32.8051
595,2021/1/22,9:54,42-18.68N,142-03.24E,120,3.625,32.7827
596,2021/1/22,9:55,42-18.50N,142-03.66E,120,3.586,32.7563
597,2021/1/22,9:56,42-18.31N,142-04.10E,119,3.513,32.7523
598,2021/1/22,9:57,42-18.13N,142-04.52E,120,3.473,32.7324
599,2021/1/22,9:58,42-17.94N,142-04.94E,120,3.453,32.7049
600,2021/1/22,9:59,42-17.76N,142-05.37E,120,3.461,32.6869
601,2021/1/22,10:00,42-17.57N,142-05.79E,120,3.471,32.6936
602,2021/1/22,10:01,42-17.38N,142-06.22E,120,3.465,32.6912
603,2021/1/22,10:02,42-17.19N,142-06.64E,121,3.476,32.6937
604,2021/1/22,10:03,42-17.01N,142-07.06E,120,3.492,32.6849
605,2021/1/22,10:04,42-16.82N,142-07.48E,121,3.499,32.6715
606,2021/1/22,10:05,42-16.63N,142-07.91E,121,3.537,32.6742
607,2021/1/22,10:06,42-16.44N,142-08.32E,119,3.585,32.6838
608,2021/1/22,10:07,42-16.26N,142-08.75E,119,3.59,32.6775
609,2021/1/22,10:08,42-16.07N,142-09.18E,120,3.612,32.6895
610,2021/1/22,10:09,42-15.89N,142-09.60E,120,3.658,32.6835
611,2021/1/22,10:10,42-15.70N,142-10.02E,120,3.755,32.7002
612,2021/1/22,10:11,42-15.51N,142-10.45E,120,3.899,32.7088
613,2021/1/22,10:12,42-15.33N,142-10.87E,120,3.987,32.7221
614,2021/1/22,10:13,42-15.14N,142-11.30E,120,3.967,32.7594
615,2021/1/22,10:14,42-14.96N,142-11.72E,120,3.985,32.7594
616,2021/1/22,10:15,42-14.77N,142-12.14E,120,4.033,32.7679
617,2021/1/22,10:16,42-14.58N,142-12.58E,121,4.013,32.7688
618,2021/1/22,10:17,42-14.37N,142-13.04E,121,4.016,32.7599
619,2021/1/22,10:18,42-14.19N,142-13.46E,120,3.931,32.7629
620,2021/1/22,10:19,42-14.03N,142-13.83E,119,3.857,32.7495
621,2021/1/22,10:20,42-13.85N,142-14.24E,119,3.797,32.7384
622,2021/1/22,10:21,42-13.67N,142-14.67E,120,3.739,32.7228
623,2021/1/22,10:22,42-13.49N,142-15.08E,120,3.712,32.7307
624,2021/1/22,10:23,42-13.30N,142-15.50E,120,3.705,32.7012
625,2021/1/22,10:24,42-13.11N,142-15.95E,120,3.729,32.6904
626,2021/1/22,10:25,42-12.94N,142-16.34E,120,3.677,32.6924
627,2021/1/22,10:26,42-12.75N,142-16.77E,119,3.739,32.6837
628,2021/1/22,10:27,42-12.58N,142-17.19E,119,3.84,32.6873
629,2021/1/22,10:28,42-12.40N,142-17.62E,119,3.999,32.6889
630,2021/1/22,10:29,42-12.22N,142-18.04E,120,4.056,32.7196
631,2021/1/22,10:30,42-12.03N,142-18.47E,119,3.972,32.7428
632,2021/1/22,10:31,42-11.85N,142-18.90E,120,3.829,32.744
633,2021/1/22,10:32,42-11.66N,142-19.34E,119,3.705,32.7289
634,2021/1/22,10:33,42-11.49N,142-19.76E,119,3.696,32.6953
635,2021/1/22,10:34,42-11.31N,142-20.18E,119,3.55,32.6909
636,2021/1/22,10:35,42-11.13N,142-20.61E,119,3.388,32.6679
637,2021/1/22,10:36,42-10.95N,142-21.02E,120,3.318,32.6465
638,2021/1/22,10:37,42-10.77N,142-21.44E,120,3.269,32.6116
639,2021/1/22,10:38,42-10.58N,142-21.87E,120,3.239,32.5944
640,2021/1/22,10:39,42-10.41N,142-22.29E,120,3.259,32.591
641,2021/1/22,10:40,42-10.22N,142-22.71E,120,3.324,32.5818
642,2021/1/22,10:41,42-10.04N,142-23.14E,120,3.42,32.5905
643,2021/1/22,10:42,42-09.86N,142-23.55E,120,3.504,32.5925
644,2021/1/22,10:43,42-09.68N,142-23.97E,120,3.495,32.6083
645,2021/1/22,10:44,42-09.49N,142-24.41E,120,3.431,32.6209
646,2021/1/22,10:45,42-09.31N,142-24.82E,119,3.4,32.6148
647,2021/1/22,10:46,42-09.14N,142-25.25E,119,3.317,32.6067
648,2021/1/22,10:47,42-08.96N,142-25.67E,120,3.272,32.5987
649,2021/1/22,10:48,42-08.77N,142-26.10E,120,3.249,32.5946
650,2021/1/22,10:49,42-08.60N,142-26.51E,119,3.225,32.5871
651,2021/1/22,10:50,42-08.41N,142-26.94E,119,3.203,32.5788
652,2021/1/22,10:51,42-08.24N,142-27.35E,119,3.201,32.5684
653,2021/1/22,10:52,42-08.06N,142-27.77E,120,3.188,32.5711
654,2021/1/22,10:53,42-07.88N,142-28.18E,119,3.203,32.5619
655,2021/1/22,10:54,42-07.70N,142-28.61E,119,3.221,32.569
656,2021/1/22,10:55,42-07.52N,142-29.03E,119,3.217,32.5729
657,2021/1/22,10:56,42-07.34N,142-29.46E,120,3.179,32.5804
658,2021/1/22,10:57,42-07.17N,142-29.87E,119,3.119,32.5738
659,2021/1/22,10:58,42-06.99N,142-30.30E,120,3.006,32.5643
660,2021/1/22,10:59,42-06.80N,142-30.72E,120,2.9,32.5506
661,2021/1/22,11:00,42-06.63N,142-31.13E,120,2.87,32.5416
662,2021/1/22,11:01,42-06.44N,142-31.56E,120,2.854,32.5312
663,2021/1/22,11:02,42-06.26N,142-31.98E,119,2.844,32.5167
664,2021/1/22,11:03,42-06.09N,142-32.41E,117,2.762,32.5118
665,2021/1/22,11:04,42-05.92N,142-32.82E,118,2.719,32.5131
666,2021/1/22,11:05,42-05.74N,142-33.24E,118,2.701,32.5082
667,2021/1/22,11:06,42-05.57N,142-33.67E,118,2.699,32.4908
668,2021/1/22,11:07,42-05.39N,142-34.08E,119,2.701,32.4903
669,2021/1/22,11:08,42-05.22N,142-34.51E,118,2.716,32.4779
670,2021/1/22,11:09,42-05.04N,142-34.93E,120,2.743,32.4771
671,2021/1/22,11:10,42-04.86N,142-35.35E,119,2.765,32.4773
672,2021/1/22,11:11,42-04.68N,142-35.78E,119,2.763,32.4837
673,2021/1/22,11:12,42-04.51N,142-36.21E,118,2.747,32.4899
674,2021/1/22,11:13,42-04.32N,142-36.64E,119,2.734,32.4819
675,2021/1/22,11:14,42-04.15N,142-37.06E,119,2.746,32.4871
676,2021/1/22,11:15,42-03.96N,142-37.50E,119,2.741,32.4848
677,2021/1/22,11:16,42-03.79N,142-37.93E,119,2.73,32.475
678,2021/1/22,11:17,42-03.61N,142-38.35E,119,2.741,32.4872
679,2021/1/22,11:18,42-03.43N,142-38.77E,120,2.771,32.484
680,2021/1/22,11:19,42-03.24N,142-39.20E,120,2.783,32.4792
681,2021/1/22,11:20,42-03.06N,142-39.62E,120,2.802,32.4787
682,2021/1/22,11:21,42-02.87N,142-40.05E,119,2.781,32.4906
683,2021/1/22,11:22,42-02.69N,142-40.48E,119,2.745,32.4909
684,2021/1/22,11:23,42-02.51N,142-40.92E,118,2.736,32.4887
685,2021/1/22,11:24,42-02.34N,142-41.36E,118,2.736,32.4975
686,2021/1/22,11:25,42-02.16N,142-41.80E,118,2.738,32.4979
687,2021/1/22,11:26,42-01.98N,142-42.24E,118,2.735,32.4964
688,2021/1/22,11:27,42-01.79N,142-42.66E,119,2.714,32.4852
689,2021/1/22,11:28,42-01.62N,142-43.09E,119,2.719,32.4824
690,2021/1/22,11:29,42-01.45N,142-43.52E,119,2.795,32.4949
691,2021/1/22,11:30,42-01.27N,142-43.95E,119,2.903,32.4851
692,2021/1/22,11:31,42-01.09N,142-44.38E,119,2.965,32.4963
693,2021/1/22,11:32,42-00.90N,142-44.82E,119,2.994,32.5051
694,2021/1/22,11:33,42-00.72N,142-45.24E,121,3.004,32.5055
695,2021/1/22,11:34,42-00.53N,142-45.67E,119,2.994,32.5126
696,2021/1/22,11:35,42-00.35N,142-46.11E,119,2.993,32.5036
697,2021/1/22,11:36,42-00.18N,142-46.53E,119,2.986,32.5036
698,2021/1/22,11:37,41-59.99N,142-46.97E,120,2.968,32.5029
699,2021/1/22,11:38,41-59.82N,142-47.39E,119,2.965,32.506
700,2021/1/22,11:39,41-59.63N,142-47.82E,120,2.968,32.5015
701,2021/1/22,11:40,41-59.44N,142-48.24E,122,2.97,32.5067
702,2021/1/22,11:41,41-59.23N,142-48.64E,124,2.957,32.4994
703,2021/1/22,11:42,41-59.02N,142-49.06E,124,2.941,32.4978
704,2021/1/22,11:43,41-58.81N,142-49.46E,123,2.937,32.4929
705,2021/1/22,11:44,41-58.61N,142-49.90E,121,2.928,32.5064
706,2021/1/22,11:45,41-58.42N,142-50.31E,121,2.913,32.503
707,2021/1/22,11:46,41-58.23N,142-50.74E,120,2.886,32.4993
708,2021/1/22,11:47,41-58.03N,142-51.18E,121,2.849,32.4962
709,2021/1/22,11:48,41-57.85N,142-51.60E,121,2.822,32.4965
710,2021/1/22,11:49,41-57.65N,142-52.03E,121,2.792,32.4964
711,2021/1/22,11:50,41-57.46N,142-52.45E,121,2.763,32.4884
712,2021/1/22,11:51,41-57.26N,142-52.89E,122,2.751,32.4825
713,2021/1/22,11:52,41-57.07N,142-53.30E,121,2.761,32.4852
714,2021/1/22,11:53,41-56.87N,142-53.74E,121,2.715,32.4928
715,2021/1/22,11:54,41-56.68N,142-54.16E,121,2.681,32.4946
716,2021/1/22,11:55,41-56.49N,142-54.58E,120,2.659,32.4844
717,2021/1/22,11:56,41-56.30N,142-55.02E,119,2.647,32.4735
718,2021/1/22,11:57,41-56.11N,142-55.44E,122,2.64,32.4775
719,2021/1/22,11:58,41-55.91N,142-55.87E,121,2.654,32.4756
720,2021/1/22,11:59,41-55.71N,142-56.30E,121,2.662,32.4762
721,2021/1/22,12:00,41-55.52N,142-56.72E,120,2.673,32.4723
722,2021/1/22,12:01,41-55.33N,142-57.17E,118,2.676,32.4828
723,2021/1/22,12:02,41-55.15N,142-57.61E,118,2.668,32.4724
724,2021/1/22,12:03,41-55.01N,142-58.06E,110,2.669,32.4712
725,2021/1/22,12:04,41-54.88N,142-58.55E,108,2.668,32.484
726,2021/1/22,12:05,41-54.78N,142-59.00E,107,2.647,32.4885
727,2021/1/22,12:06,41-54.67N,142-59.46E,108,2.645,32.4962
728,2021/1/22,12:07,41-54.53N,143-00.01E,109,2.607,32.4961
729,2021/1/22,12:08,41-54.41N,143-00.47E,108,2.528,32.4928
730,2021/1/22,12:09,41-54.29N,143-00.95E,108,2.544,32.4992
731,2021/1/22,12:10,41-54.18N,143-01.36E,109,2.583,32.5044
732,2021/1/22,12:11,41-54.05N,143-01.86E,109,2.583,32.5135
733,2021/1/22,12:12,41-53.92N,143-02.33E,109,2.691,32.5079
734,2021/1/22,12:13,41-53.80N,143-02.85E,107,2.838,32.4934
735,2021/1/22,12:14,41-53.70N,143-03.25E,108,2.905,32.4955
736,2021/1/22,12:15,41-53.59N,143-03.72E,108,2.927,32.4938
737,2021/1/22,12:16,41-53.47N,143-04.18E,109,2.941,32.4934
738,2021/1/22,12:17,41-53.35N,143-04.62E,108,2.961,32.4937
739,2021/1/22,12:18,41-53.24N,143-05.08E,107,2.938,32.4957
740,2021/1/22,12:19,41-53.11N,143-05.59E,108,2.93,32.4992
741,2021/1/22,12:20,41-52.99N,143-06.03E,108,2.938,32.498
742,2021/1/22,12:21,41-52.89N,143-06.43E,108,2.946,32.4883
743,2021/1/22,12:22,41-52.77N,143-06.89E,109,2.915,32.5057
744,2021/1/22,12:23,41-52.66N,143-07.34E,108,2.889,32.4851
745,2021/1/22,12:24,41-52.54N,143-07.79E,109,2.868,32.4906
746,2021/1/22,12:25,41-52.42N,143-08.24E,109,2.853,32.4757
747,2021/1/22,12:26,41-52.30N,143-08.70E,110,2.825,32.47
748,2021/1/22,12:27,41-52.17N,143-09.14E,109,2.732,32.485
749,2021/1/22,12:28,41-52.05N,143-09.60E,109,2.674,32.4759
750,2021/1/22,12:29,41-51.93N,143-10.06E,110,2.744,32.4721
751,2021/1/22,12:30,41-51.81N,143-10.50E,109,2.688,32.459
752,2021/1/22,12:31,41-51.69N,143-10.96E,109,2.527,32.4472
753,2021/1/22,12:32,41-51.57N,143-11.41E,109,2.451,32.4323
754,2021/1/22,12:33,41-51.45N,143-11.87E,109,2.415,32.4288
755,2021/1/22,12:34,41-51.34N,143-12.31E,109,2.395,32.4162
756,2021/1/22,12:35,41-51.25N,143-12.76E,102,2.369,32.3965
757,2021/1/22,12:36,41-51.18N,143-13.22E,101,2.369,32.3934
758,2021/1/22,12:37,41-51.12N,143-13.67E,100,2.369,32.3899
759,2021/1/22,12:38,41-51.06N,143-14.14E,99,2.397,32.3934
760,2021/1/22,12:39,41-51.03N,143-14.66E,93,2.433,32.3781
761,2021/1/22,12:40,41-51.04N,143-15.11E,81,2.474,32.3965
762,2021/1/22,12:41,41-51.18N,143-15.48E,60,2.473,32.3939
763,2021/1/22,12:42,41-51.35N,143-15.85E,59,2.383,32.402
764,2021/1/22,12:43,41-51.54N,143-16.28E,56,2.393,32.3933
765,2021/1/22,12:44,41-51.74N,143-16.62E,52,2.438,32.3874
766,2021/1/22,12:45,41-51.93N,143-16.97E,53,2.366,32.3894
767,2021/1/22,12:46,41-52.12N,143-17.31E,54,2.288,32.4088
768,2021/1/22,12:47,41-52.30N,143-17.68E,57,2.269,32.3829
769,2021/1/22,12:48,41-52.47N,143-18.06E,58,2.26,32.38
770,2021/1/22,12:49,41-52.64N,143-18.44E,59,2.335,32.3745
771,2021/1/22,12:50,41-52.81N,143-18.84E,59,2.422,32.3821
772,2021/1/22,12:51,41-52.98N,143-19.23E,60,2.533,32.3887
773,2021/1/22,12:52,41-53.15N,143-19.63E,60,2.614,32.3951
774,2021/1/22,12:53,41-53.32N,143-20.04E,61,2.647,32.4032
775,2021/1/22,12:54,41-53.49N,143-20.44E,61,2.659,32.4088
776,2021/1/22,12:55,41-53.65N,143-20.86E,62,2.671,32.4184
777,2021/1/22,12:56,41-53.80N,143-21.24E,63,2.687,32.4099
778,2021/1/22,12:57,41-53.96N,143-21.61E,60,2.698,32.4098
779,2021/1/22,12:58,41-54.13N,143-22.02E,59,2.709,32.4147
780,2021/1/22,12:59,41-54.31N,143-22.43E,59,2.714,32.418
781,2021/1/22,13:00,41-54.51N,143-22.80E,52,2.728,32.4203
782,2021/1/22,13:01,41-54.75N,143-23.21E,50,2.748,32.4212
783,2021/1/22,13:02,41-54.99N,143-23.58E,50,2.766,32.4176
784,2021/1/22,13:03,41-55.21N,143-23.94E,50,2.788,32.4242
785,2021/1/22,13:04,41-55.42N,143-24.28E,51,2.811,32.4356
786,2021/1/22,13:05,41-55.61N,143-24.59E,51,2.756,32.4346
787,2021/1/22,13:06,41-55.81N,143-24.92E,50,2.733,32.4274
788,2021/1/22,13:07,41-56.03N,143-25.24E,47,2.697,32.4243
789,2021/1/22,13:08,41-56.24N,143-25.54E,46,2.619,32.4182
790,2021/1/22,13:09,41-56.48N,143-25.82E,39,2.516,32.4114
791,2021/1/22,13:10,41-56.73N,143-26.07E,36,2.443,32.401
792,2021/1/22,13:11,41-56.98N,143-26.30E,33,2.401,32.3821
793,2021/1/22,13:12,41-57.25N,143-26.52E,30,2.358,32.3744
794,2021/1/22,13:13,41-57.51N,143-26.72E,30,2.312,32.3765
795,2021/1/22,13:14,41-57.78N,143-26.93E,29,2.241,32.3762
796,2021/1/22,13:15,41-58.05N,143-27.14E,29,2.206,32.3645
797,2021/1/22,13:16,41-58.31N,143-27.33E,29,2.172,32.354
798,2021/1/22,13:17,41-58.57N,143-27.54E,30,2.139,32.358
799,2021/1/22,13:18,41-58.84N,143-27.74E,30,2.11,32.343
800,2021/1/22,13:19,41-59.10N,143-27.95E,30,2.049,32.3289
801,2021/1/22,13:20,41-59.37N,143-28.16E,30,1.988,32.3315
802,2021/1/22,13:21,41-59.63N,143-28.36E,29,1.95,32.33
803,2021/1/22,13:22,41-59.90N,143-28.56E,29,1.848,32.324
804,2021/1/22,13:23,42-00.17N,143-28.76E,29,1.701,32.321
805,2021/1/22,13:24,42-00.44N,143-28.97E,30,1.645,32.3159
806,2021/1/22,13:25,42-00.71N,143-29.18E,30,1.615,32.2785
807,2021/1/22,13:26,42-00.97N,143-29.38E,30,1.607,32.2664
808,2021/1/22,13:27,42-01.24N,143-29.59E,29,1.601,32.2693
809,2021/1/22,13:28,42-01.50N,143-29.80E,30,1.606,32.2694
810,2021/1/22,13:29,42-01.77N,143-30.01E,30,1.624,32.2532
811,2021/1/22,13:30,42-02.04N,143-30.22E,29,1.651,32.2565
812,2021/1/22,13:31,42-02.30N,143-30.42E,30,1.675,32.2586
813,2021/1/22,13:32,42-02.57N,143-30.63E,30,1.637,32.2581
814,2021/1/22,13:33,42-02.84N,143-30.84E,30,1.64,32.2624
815,2021/1/22,13:34,42-03.10N,143-31.04E,30,1.656,32.2596
816,2021/1/22,13:35,42-03.37N,143-31.25E,30,1.651,32.2564
817,2021/1/22,13:36,42-03.64N,143-31.47E,30,1.659,32.2648
818,2021/1/22,13:37,42-03.91N,143-31.67E,30,1.662,32.2634
819,2021/1/22,13:38,42-04.17N,143-31.88E,29,1.654,32.2712
820,2021/1/22,13:39,42-04.44N,143-32.08E,29,1.65,32.2601
821,2021/1/22,13:40,42-04.71N,143-32.30E,30,1.644,32.2614
822,2021/1/22,13:41,42-04.99N,143-32.51E,29,1.643,32.2538
823,2021/1/22,13:42,42-05.25N,143-32.71E,29,1.639,32.2681
824,2021/1/22,13:43,42-05.52N,143-32.92E,30,1.641,32.2504
825,2021/1/22,13:44,42-05.79N,143-33.13E,29,1.641,32.2494
826,2021/1/22,13:45,42-06.06N,143-33.34E,29,1.632,32.2533
827,2021/1/22,13:46,42-06.34N,143-33.55E,29,1.629,32.2548
828,2021/1/22,13:47,42-06.60N,143-33.75E,29,1.618,32.2489
829,2021/1/22,13:48,42-06.88N,143-33.96E,29,1.592,32.2449
830,2021/1/22,13:49,42-07.15N,143-34.17E,30,1.574,32.2492
831,2021/1/22,13:50,42-07.41N,143-34.38E,29,1.575,32.2296
832,2021/1/22,13:51,42-07.69N,143-34.60E,30,1.576,32.2241
833,2021/1/22,13:52,42-07.96N,143-34.80E,29,1.571,32.2316
834,2021/1/22,13:53,42-08.23N,143-35.01E,29,1.573,32.2251
835,2021/1/22,13:54,42-08.50N,143-35.22E,29,1.556,32.2301
836,2021/1/22,13:55,42-08.77N,143-35.43E,29,1.536,32.2287
837,2021/1/22,13:56,42-09.04N,143-35.63E,30,1.529,32.2308
838,2021/1/22,13:57,42-09.31N,143-35.85E,32,1.563,32.2103
839,2021/1/22,13:58,42-09.57N,143-36.08E,32,1.566,32.2204
840,2021/1/22,13:59,42-09.83N,143-36.31E,33,1.588,32.2288
841,2021/1/22,14:00,42-10.09N,143-36.54E,33,1.609,32.2269
842,2021/1/22,14:01,42-10.36N,143-36.78E,33,1.626,32.2197
843,2021/1/22,14:02,42-10.61N,143-37.00E,33,1.639,32.2197
844,2021/1/22,14:03,42-10.88N,143-37.24E,33,1.634,32.2345
845,2021/1/22,14:04,42-11.12N,143-37.47E,33,1.628,32.227
846,2021/1/22,14:05,42-11.39N,143-37.70E,33,1.635,32.2355
847,2021/1/22,14:06,42-11.64N,143-37.93E,33,1.635,32.2365
848,2021/1/22,14:07,42-11.90N,143-38.16E,33,1.654,32.2329
849,2021/1/22,14:08,42-12.20N,143-38.43E,33,1.676,32.2336
850,2021/1/22,14:09,42-12.45N,143-38.66E,33,1.689,32.2419
851,2021/1/22,14:10,42-12.72N,143-38.90E,33,1.692,32.2438
852,2021/1/22,14:11,42-12.97N,143-39.13E,34,1.695,32.2558
853,2021/1/22,14:12,42-13.23N,143-39.37E,34,1.689,32.2478
854,2021/1/22,14:13,42-13.49N,143-39.61E,34,1.697,32.2469
855,2021/1/22,14:14,42-13.74N,143-39.85E,35,1.709,32.2494
856,2021/1/22,14:15,42-14.00N,143-40.08E,32,1.722,32.2602
857,2021/1/22,14:16,42-14.26N,143-40.29E,31,1.778,32.2613
858,2021/1/22,14:17,42-14.52N,143-40.51E,31,1.694,32.2837
859,2021/1/22,14:18,42-14.77N,143-40.71E,31,1.644,32.2838
860,2021/1/22,14:19,42-15.00N,143-40.91E,31,1.68,32.2642
861,2021/1/22,14:20,42-15.25N,143-41.11E,31,1.631,32.2636
862,2021/1/22,14:21,42-15.51N,143-41.33E,31,1.633,32.2666
863,2021/1/22,14:22,42-15.76N,143-41.54E,31,1.53,32.2642
864,2021/1/22,14:23,42-16.06N,143-41.78E,31,1.477,32.257
865,2021/1/22,14:24,42-16.32N,143-41.99E,30,1.471,32.2303
866,2021/1/22,14:25,42-16.58N,143-42.21E,32,1.465,32.2254
867,2021/1/22,14:26,42-16.84N,143-42.44E,32,1.437,32.2018
868,2021/1/22,14:27,42-17.10N,143-42.65E,31,1.439,32.2063
869,2021/1/22,14:28,42-17.37N,143-42.87E,31,1.464,32.2066
870,2021/1/22,14:29,42-17.63N,143-43.09E,30,1.473,32.2153
871,2021/1/22,14:30,42-17.91N,143-43.30E,30,1.509,32.2198
872,2021/1/22,14:31,42-18.17N,143-43.52E,30,1.554,32.2332
873,2021/1/22,14:32,42-18.41N,143-43.71E,31,1.549,32.2259
874,2021/1/22,14:33,42-18.66N,143-43.92E,30,1.531,32.2258
875,2021/1/22,14:34,42-18.93N,143-44.13E,30,1.505,32.2322
876,2021/1/22,14:35,42-19.24N,143-44.37E,29,1.521,32.2256
877,2021/1/22,14:36,42-19.48N,143-44.55E,30,1.559,32.2409
878,2021/1/22,14:37,42-19.73N,143-44.75E,31,1.584,32.2428
879,2021/1/22,14:38,42-19.99N,143-44.96E,29,1.597,32.2503
880,2021/1/22,14:39,42-20.26N,143-45.17E,29,1.611,32.2625
881,2021/1/22,14:40,42-20.52N,143-45.37E,30,1.629,32.2634
882,2021/1/22,14:41,42-20.78N,143-45.58E,30,1.643,32.2656
883,2021/1/22,14:42,42-21.04N,143-45.78E,29,1.623,32.2736
884,2021/1/22,14:43,42-21.31N,143-46.00E,30,1.601,32.2536
885,2021/1/22,14:44,42-21.57N,143-46.20E,31,1.569,32.252
886,2021/1/22,14:45,42-21.82N,143-46.42E,31,1.549,32.2324
887,2021/1/22,14:46,42-22.09N,143-46.63E,32,1.53,32.2252
888,2021/1/22,14:47,42-22.34N,143-46.85E,31,1.53,32.2166
889,2021/1/22,14:48,42-22.61N,143-47.06E,31,1.524,32.2003
890,2021/1/22,14:49,42-22.87N,143-47.27E,31,1.504,32.1967
891,2021/1/22,14:50,42-23.13N,143-47.49E,31,1.493,32.1871
892,2021/1/22,14:51,42-23.38N,143-47.70E,31,1.488,32.1734
893,2021/1/22,14:52,42-23.65N,143-47.92E,31,1.484,32.1699
894,2021/1/22,14:53,42-23.91N,143-48.13E,31,1.491,32.1742
895,2021/1/22,14:54,42-24.16N,143-48.35E,31,1.492,32.1774
896,2021/1/22,14:55,42-24.43N,143-48.58E,31,1.485,32.1679
897,2021/1/22,14:56,42-24.69N,143-48.79E,30,1.475,32.1667
898,2021/1/22,14:57,42-24.96N,143-49.01E,31,1.466,32.1648
899,2021/1/22,14:58,42-25.22N,143-49.22E,31,1.461,32.1632
900,2021/1/22,14:59,42-25.48N,143-49.45E,31,1.46,32.1673
901,2021/1/22,15:00,42-25.77N,143-49.68E,30,1.455,32.1584
902,2021/1/22,15:01,42-26.03N,143-49.91E,32,1.46,32.166
903,2021/1/22,15:02,42-26.27N,143-50.10E,32,1.465,32.1554
904,2021/1/22,15:03,42-26.53N,143-50.32E,30,1.462,32.1623
905,2021/1/22,15:04,42-26.80N,143-50.54E,32,1.459,32.1613
906,2021/1/22,15:05,42-27.07N,143-50.77E,32,1.466,32.1559
907,2021/1/22,15:06,42-27.33N,143-50.99E,32,1.497,32.1656
908,2021/1/22,15:07,42-27.60N,143-51.21E,31,1.545,32.183
909,2021/1/22,15:08,42-27.86N,143-51.43E,31,1.577,32.1845
910,2021/1/22,15:09,42-28.13N,143-51.65E,32,1.579,32.2055
911,2021/1/22,15:10,42-28.40N,143-51.87E,31,1.583,32.2178
912,2021/1/22,15:11,42-28.66N,143-52.09E,32,1.599,32.2127
913,2021/1/22,15:12,42-28.92N,143-52.31E,31,1.618,32.2049
914,2021/1/22,15:13,42-29.19N,143-52.53E,31,1.63,32.2206
915,2021/1/22,15:14,42-29.46N,143-52.75E,30,1.553,32.23
916,2021/1/22,15:15,42-29.73N,143-52.97E,31,1.493,32.2327
917,2021/1/22,15:16,42-29.99N,143-53.18E,31,1.469,32.2142
918,2021/1/22,15:17,42-30.26N,143-53.40E,30,1.453,32.2109
919,2021/1/22,15:18,42-30.53N,143-53.61E,31,1.446,32.2082
920,2021/1/22,15:19,42-30.80N,143-53.82E,30,1.429,32.1968
921,2021/1/22,15:20,42-31.07N,143-54.04E,30,1.413,32.1992
922,2021/1/22,15:21,42-31.33N,143-54.25E,30,1.395,32.1961
923,2021/1/22,15:22,42-31.60N,143-54.46E,30,1.376,32.1931